Simultaneous Nadir Overpasses (SNOs) Predictions

Prediction of SNOs between AQUA and GOES-15 Satellite Orbit:

Table of predicted SNOs for the next 14.0 days since TLE Epoch: 11/25/2011
Index Date Time (AQUA) AQUA Lat,Lon GOES-15 Lat,Lon Distance(km) Time Diff (sec)
1 11/26/2011 21:39:01 0.16,-121.04 -0.01,-121.87 93.87 80
2 11/27/2011 10:00:18 0.86,-126.22 -0.01,-122.06 472.73 80
3 11/29/2011 09:48:13 -0.08,-123.33 -0.00,-123.65 36.85 80
4 11/29/2011 22:09:39 -0.91,-128.54 0.02,-124.29 484.31 80
5 12/01/2011 21:57:34 0.08,-125.67 0.01,-125.90 26.60 80
6 12/04/2011 10:06:43 0.05,-127.93 -0.02,-127.69 28.44 80
7 12/06/2011 09:54:36 -0.91,-125.04 -0.01,-129.28 481.58 80
8 12/06/2011 22:16:02 -0.04,-130.26 0.03,-129.91 40.20 80
9 12/08/2011 22:03:54 0.91,-127.37 0.01,-131.50 470.20 80
10 12/09/2011 10:25:08 0.18,-132.52 -0.03,-131.70 94.33 80




NCC Satellite Simultaneous Nadir Overpasses (SNOs) Prediction Service
